| time (UTC) | temp C | wind direction | speed KPH | gust KPH | rain 1hr cm | rain 24hr cm | rain mn cm | humidity % | barometer mb |
| 20260502221034 | 10 | 318 | 1.6 | 6.4 | 0.00 | 0.48 | 0.48 | 51 | 1011.7 |
| 20260502220534 | 10 | 323 | 0.0 | 4.8 | 0.00 | 0.48 | 0.48 | 53 | 1011.6 |
| 20260502220034 | 10 | 194 | 0.0 | 8.0 | 0.00 | 0.48 | 0.48 | 52 | 1011.6 |
| 20260502215533 | 10 | 207 | 1.6 | 12.9 | 0.00 | 0.48 | 0.48 | 52 | 1011.7 |
| 20260502215033 | 10 | 202 | 3.2 | 12.9 | 0.00 | 0.48 | 0.48 | 51 | 1011.7 |
| 20260502214532 | 10 | 209 | 3.2 | 9.7 | 0.00 | 0.48 | 0.48 | 52 | 1011.7 |
| 20260502214032 | 10 | 216 | 4.8 | 11.3 | 0.00 | 0.48 | 0.48 | 52 | 1011.8 |
| 20260502213531 | 10 | 188 | 1.6 | 9.7 | 0.00 | 0.48 | 0.48 | 58 | 1011.7 |
| 20260502213031 | 10 | 171 | 3.2 | 9.7 | 0.00 | 0.48 | 0.48 | 54 | 1011.7 |
| 20260502212530 | 10 | 163 | 4.8 | 12.9 | 0.00 | 0.48 | 0.48 | 54 | 1011.6 |
| 20260502212029 | 10 | 211 | 4.8 | 12.9 | 0.00 | 0.48 | 0.48 | 58 | 1011.5 |
| 20260502211639 | 10 | 257 | 3.2 | 12.9 | 0.00 | 0.48 | 0.48 | 57 | 1011.5 |
| 20260502211028 | 10 | 183 | 1.6 | 11.3 | 0.00 | 0.48 | 0.48 | 58 | 1011.6 |
| 20260502210529 | 10 | 138 | 1.6 | 11.3 | 0.00 | 0.48 | 0.48 | 57 | 1011.5 |
| 20260502210034 | 10 | 195 | 1.6 | 11.3 | 0.00 | 0.48 | 0.48 | 58 | 1011.4 |
| 20260502205528 | 10 | 184 | 1.6 | 4.8 | 0.00 | 0.48 | 0.48 | 58 | 1011.5 |
| 20260502205026 | 10 | 159 | 1.6 | 11.3 | 0.00 | 0.48 | 0.48 | 59 | 1011.6 |
| 20260502204526 | 10 | 314 | 3.2 | 11.3 | 0.00 | 0.48 | 0.48 | 61 | 1011.5 |
| 20260502204026 | 10 | 180 | 1.6 | 9.7 | 0.00 | 0.48 | 0.48 | 60 | 1011.4 |
| 20260502203526 | 10 | 213 | 4.8 | 11.3 | 0.00 | 0.48 | 0.48 | 59 | 1011.5 |
| 20260502203025 | 10 | 174 | 3.2 | 12.9 | 0.00 | 0.48 | 0.48 | 58 | 1011.5 |
| 20260502202525 | 10 | 355 | 3.2 | 14.5 | 0.00 | 0.48 | 0.48 | 59 | 1011.6 |
| 20260502202024 | 11 | 225 | 1.6 | 14.5 | 0.00 | 0.48 | 0.48 | 59 | 1011.5 |
| 20260502201524 | 11 | 234 | 1.6 | 9.7 | 0.00 | 0.48 | 0.48 | 59 | 1011.5 |
| 20260502201024 | 11 | 178 | 1.6 | 6.4 | 0.00 | 0.48 | 0.48 | 59 | 1011.6 |
| 20260502200524 | 11 | 173 | 0.0 | 9.7 | 0.00 | 0.48 | 0.48 | 61 | 1011.5 |
| 20260502200025 | 11 | 200 | 1.6 | 12.9 | 0.00 | 0.48 | 0.48 | 59 | 1011.7 |
| 20260502195523 | 11 | 200 | 4.8 | 12.9 | 0.00 | 0.48 | 0.48 | 59 | 1011.8 |
| 20260502195021 | 11 | 186 | 1.6 | 14.5 | 0.00 | 0.48 | 0.48 | 60 | 1011.7 |
| 20260502194520 | 12 | 202 | 4.8 | 8.0 | 0.00 | 0.48 | 0.48 | 59 | 1011.9 |
| 20260502194018 | 11 | 186 | 1.6 | 12.9 | 0.00 | 0.48 | 0.48 | 64 | 1012.0 |
| 20260502193531 | 11 | 153 | 1.6 | 6.4 | 0.00 | 0.48 | 0.48 | 65 | 1012.1 |
| 20260502193016 | 10 | 5 | 0.0 | 14.5 | 0.00 | 0.48 | 0.48 | 67 | 1012.2 |
| 20260502192513 | 10 | 279 | 6.4 | 14.5 | 0.00 | 0.48 | 0.48 | 66 | 1012.2 |
| 20260502192013 | 10 | 209 | 3.2 | 8.0 | 0.00 | 0.48 | 0.48 | 68 | 1012.4 |
| 20260502191512 | 9 | 208 | 3.2 | 11.3 | 0.00 | 0.48 | 0.48 | 66 | 1012.3 |
| 20260502191012 | 9 | 190 | 1.6 | 9.7 | 0.00 | 0.48 | 0.48 | 70 | 1012.4 |
| 20260502190512 | 9 | 198 | 3.2 | 12.9 | 0.00 | 0.48 | 0.48 | 68 | 1012.4 |
| 20260502190012 | 9 | 180 | 4.8 | 14.5 | 0.00 | 0.48 | 0.48 | 67 | 1012.5 |
| 20260502185511 | 9 | 203 | 1.6 | 16.1 | 0.00 | 0.48 | 0.48 | 68 | 1012.5 |
| 20260502185010 | 9 | 157 | 3.2 | 16.1 | 0.00 | 0.48 | 0.48 | 68 | 1012.5 |
| 20260502184510 | 10 | 287 | 1.6 | 11.3 | 0.00 | 0.48 | 0.48 | 69 | 1012.5 |
| 20260502184010 | 10 | 202 | 3.2 | 9.7 | 0.00 | 0.48 | 0.48 | 69 | 1012.6 |
| 20260502183509 | 10 | 227 | 3.2 | 8.0 | 0.00 | 0.48 | 0.48 | 70 | 1012.5 |
| 20260502183015 | 10 | 257 | 1.6 | 9.7 | 0.00 | 0.48 | 0.48 | 71 | 1012.5 |
| 20260502182508 | 10 | 227 | 3.2 | 9.7 | 0.00 | 0.48 | 0.48 | 71 | 1012.6 |
| 20260502182006 | 9 | 248 | 3.2 | 9.7 | 0.00 | 0.48 | 0.48 | 75 | 1012.6 |
| 20260502181509 | 8 | 186 | 3.2 | 9.7 | 0.00 | 0.48 | 0.48 | 74 | 1012.7 |
| 20260502181004 | 8 | 159 | 3.2 | 11.3 | 0.00 | 0.48 | 0.48 | 74 | 1012.8 |
| 20260502180504 | 8 | 198 | 3.2 | 12.9 | 0.00 | 0.48 | 0.48 | 74 | 1012.8 |
| 20260502164056 | 7 | 200 | 6.4 | 16.1 | 0.00 | 0.48 | 0.48 | 82 | 1013.0 |
| 20260502163555 | 7 | 239 | 4.8 | 16.1 | 0.00 | 0.48 | 0.48 | 84 | 1013.1 |
| 20260502163056 | 7 | 196 | 4.8 | 16.1 | 0.00 | 0.48 | 0.48 | 82 | 1013.2 |
| 20260502162554 | 7 | 64 | 3.2 | 17.7 | 0.00 | 0.48 | 0.48 | 82 | 1013.2 |
| 20260502162054 | 7 | 214 | 4.8 | 12.9 | 0.00 | 0.48 | 0.48 | 82 | 1013.2 |
| 20260502161554 | 7 | 152 | 4.8 | 17.7 | 0.00 | 0.48 | 0.48 | 82 | 1013.2 |
| 20260502161053 | 7 | 206 | 6.4 | 17.7 | 0.00 | 0.48 | 0.48 | 83 | 1013.2 |
| 20260502160552 | 7 | 215 | 3.2 | 16.1 | 0.00 | 0.48 | 0.48 | 82 | 1013.1 |
| 20260502152049 | 6 | 193 | 0.0 | 11.3 | 0.00 | 0.48 | 0.48 | 91 | 1013.3 |
| 20260502151600 | 6 | 150 | 1.6 | 12.9 | 0.00 | 0.48 | 0.48 | 92 | 1013.3 |
| 20260502151049 | 6 | 286 | 3.2 | 12.9 | 0.00 | 0.48 | 0.48 | 91 | 1013.2 |
| 20260502150551 | 6 | 164 | 4.8 | 16.1 | 0.00 | 0.48 | 0.48 | 91 | 1013.2 |
| 20260502130533 | 7 | 208 | 0.0 | 4.8 | 0.00 | 0.48 | 0.48 | 94 | 1013.0 |
| 20260502123530 | 7 | 168 | 1.6 | 6.4 | 0.00 | 0.48 | 0.48 | 96 | 1013.1 |
| 20260502123030 | 7 | 167 | 0.0 | 4.8 | 0.00 | 0.48 | 0.48 | 96 | 1013.0 |
| 20260502122532 | 7 | 167 | 0.0 | 4.8 | 0.00 | 0.48 | 0.48 | 96 | 1013.1 |
| 20260502122033 | 7 | 167 | 1.6 | 4.8 | 0.00 | 0.48 | 0.48 | 96 | 1013.1 |
| 20260502121533 | 6 | 165 | 1.6 | 8.0 | 0.03 | 0.48 | 0.48 | 96 | 1013.0 |
| 20260502121029 | 6 | 170 | 3.2 | 9.7 | 0.03 | 0.48 | 0.48 | 96 | 1013.0 |
| 20260502120529 | 6 | 136 | 0.0 | 3.2 | 0.03 | 0.48 | 0.48 | 97 | 1013.0 |
| 20260502115528 | 6 | 136 | 1.6 | 4.8 | 0.03 | 0.48 | 0.48 | 97 | 1013.1 |
| 20260502115027 | 6 | 171 | 0.0 | 3.2 | 0.03 | 0.48 | 0.48 | 97 | 1013.1 |
| 20260502114527 | 6 | 171 | 0.0 | 3.2 | 0.05 | 0.48 | 0.48 | 97 | 1013.1 |
| 20260502114027 | 6 | 171 | 0.0 | 4.8 | 0.08 | 0.48 | 0.48 | 97 | 1013.1 |
| 20260502113527 | 6 | 171 | 1.6 | 4.8 | 0.08 | 0.48 | 0.48 | 97 | 1013.1 |
| 20260502113028 | 6 | 124 | 1.6 | 4.8 | 0.10 | 0.48 | 0.48 | 97 | 1013.2 |
| 20260502112525 | 6 | 124 | 0.0 | 3.2 | 0.10 | 0.48 | 0.48 | 96 | 1013.0 |
| 20260502112027 | 6 | 124 | 0.0 | 4.8 | 0.13 | 0.48 | 0.48 | 96 | 1012.9 |
| 20260502111523 | 6 | 124 | 0.0 | 1.6 | 0.13 | 0.46 | 0.46 | 96 | 1013.0 |
| 20260502111022 | 6 | 124 | 0.0 | 3.2 | 0.18 | 0.46 | 0.46 | 96 | 1013.0 |
| 20260502110521 | 6 | 124 | 0.0 | 3.2 | 0.18 | 0.46 | 0.46 | 96 | 1013.0 |
| 20260502110020 | 6 | 123 | 0.0 | 6.4 | 0.18 | 0.46 | 0.46 | 96 | 1013.0 |
| 20260502105519 | 6 | 123 | 1.6 | 6.4 | 0.18 | 0.46 | 0.46 | 96 | 1013.0 |
| 20260502105016 | 6 | 157 | 0.0 | 4.8 | 0.18 | 0.46 | 0.46 | 96 | 1013.2 |
| 20260502104522 | 6 | 157 | 0.0 | 4.8 | 0.15 | 0.43 | 0.43 | 96 | 1013.2 |
| 20260502104017 | 6 | 154 | 0.0 | 3.2 | 0.15 | 0.41 | 0.41 | 96 | 1013.2 |
| 20260502103517 | 6 | 154 | 0.0 | 4.8 | 0.18 | 0.41 | 0.41 | 97 | 1013.1 |
| 20260502103016 | 6 | 154 | 0.0 | 4.8 | 0.18 | 0.38 | 0.38 | 97 | 1013.1 |
| 20260502102515 | 5 | 198 | 0.0 | 3.2 | 0.18 | 0.36 | 0.36 | 96 | 1012.9 |
| 20260502102016 | 5 | 198 | 0.0 | 3.2 | 0.23 | 0.36 | 0.36 | 96 | 1012.8 |
| 20260502101534 | 5 | 200 | 0.0 | 1.6 | 0.18 | 0.30 | 0.30 | 96 | 1012.8 |
| 20260502101014 | 5 | 200 | 0.0 | 1.6 | 0.15 | 0.28 | 0.28 | 96 | 1012.5 |
| 20260502100514 | 5 | 200 | 0.0 | 0.0 | 0.15 | 0.28 | 0.28 | 96 | 1012.5 |
| 20260502091511 | 5 | 207 | 0.0 | 0.0 | 0.00 | 0.13 | 0.13 | 96 | 1012.5 |
| 20260502091012 | 5 | 207 | 0.0 | 0.0 | 0.00 | 0.13 | 0.13 | 96 | 1012.4 |
| 20260502090510 | 5 | 207 | 0.0 | 0.0 | 0.00 | 0.13 | 0.13 | 96 | 1012.6 |
| 20260502071502 | 6 | 163 | 0.0 | 0.0 | 0.05 | 0.08 | 0.08 | 95 | 1013.0 |
| 20260502071002 | 6 | 163 | 0.0 | 0.0 | 0.05 | 0.08 | 0.08 | 95 | 1012.8 |
| 20260502070600 | 6 | 163 | 0.0 | 0.0 | 0.05 | 0.08 | 0.08 | 95 | 1012.8 |
| 20260502070130 | 6 | 163 | 0.0 | 0.0 | 0.05 | 0.08 | 0.08 | 95 | 1012.8 |
| 20260502065600 | 6 | 163 | 0.0 | 0.0 | 0.05 | 0.08 | 0.08 | 95 | 1012.8 |
| 20260502065058 | 6 | 163 | 0.0 | 0.0 | 0.05 | 0.08 | 0.08 | 94 | 1012.7 |
| 20260502064559 | 6 | 163 | 0.0 | 0.0 | 0.05 | 0.08 | 0.08 | 94 | 1012.9 |
| 20260502064058 | 6 | 163 | 0.0 | 1.6 | 0.05 | 0.08 | 0.08 | 94 | 1012.9 |
| 20260502063558 | 6 | 163 | 0.0 | 1.6 | 0.03 | 0.05 | 0.05 | 94 | 1012.8 |
| 20260502063100 | 6 | 163 | 0.0 | 1.6 | 0.00 | 0.03 | 0.03 | 94 | 1012.9 |
| 20260502062559 | 6 | 163 | 0.0 | 1.6 | 0.00 | 0.03 | 0.03 | 94 | 1012.8 |
| 20260502062056 | 6 | 163 | 0.0 | 1.6 | 0.00 | 0.03 | 0.03 | 94 | 1013.0 |
| 20260502061606 | 6 | 163 | 0.0 | 1.6 | 0.00 | 0.03 | 0.03 | 93 | 1013.2 |
| 20260502061055 | 6 | 163 | 0.0 | 0.0 | 0.00 | 0.03 | 0.03 | 93 | 1012.9 |
| 20260502060556 | 6 | 163 | 0.0 | 0.0 | 0.00 | 0.03 | 0.03 | 93 | 1013.1 |
| 20260502060057 | 6 | 163 | 0.0 | 1.6 | 0.00 | 0.03 | 0.03 | 93 | 1013.0 |
| 20260502055555 | 6 | 163 | 0.0 | 1.6 | 0.00 | 0.03 | 0.03 | 93 | 1012.9 |
| 20260502055055 | 6 | 163 | 0.0 | 3.2 | 0.03 | 0.03 | 0.03 | 93 | 1012.9 |
| 20260502054557 | 6 | 163 | 0.0 | 3.2 | 0.03 | 0.03 | 0.03 | 92 | 1012.8 |
| 20260502054052 | 6 | 163 | 0.0 | 0.0 | 0.03 | 0.03 | 0.03 | 92 | 1012.7 |
| 20260502053552 | 6 | 163 | 0.0 | 0.0 | 0.03 | 0.03 | 0.03 | 92 | 1012.9 |
| 20260502053051 | 6 | 163 | 0.0 | 0.0 | 0.03 | 0.03 | 0.03 | 91 | 1012.9 |
| 20260502052551 | 6 | 163 | 0.0 | 0.0 | 0.03 | 0.03 | 0.03 | 91 | 1012.9 |
| 20260502052053 | 6 | 163 | 0.0 | 0.0 | 0.03 | 0.03 | 0.03 | 90 | 1013.1 |
| 20260502051608 | 6 | 163 | 0.0 | 0.0 | 0.03 | 0.03 | 0.03 | 90 | 1013.1 |
| 20260502051049 | 6 | 163 | 0.0 | 0.0 | 0.03 | 0.03 | 0.03 | 89 | 1013.1 |
| 20260502050548 | 7 | 163 | 0.0 | 0.0 | 0.03 | 0.03 | 0.03 | 88 | 1013.1 |
| 20260502050048 | 7 | 163 | 0.0 | 0.0 | 0.03 | 0.03 | 0.03 | 88 | 1013.1 |
| 20260502045548 | 7 | 163 | 0.0 | 0.0 | 0.03 | 0.03 | 0.03 | 87 | 1013.2 |
| 20260502045046 | 7 | 163 | 0.0 | 0.0 | 0.00 | 0.00 | 0.00 | 85 | 1013.5 |
| 20260502044547 | 7 | 163 | 0.0 | 0.0 | 0.00 | 0.00 | 0.00 | 82 | 1013.6 |
| 20260502044044 | 7 | 163 | 0.0 | 0.0 | 0.00 | 0.00 | 0.00 | 80 | 1013.6 |
| 20260502043543 | 7 | 163 | 0.0 | 0.0 | 0.00 | 0.00 | 0.00 | 80 | 1013.5 |
| 20260502043045 | 7 | 163 | 0.0 | 0.0 | 0.00 | 0.00 | 0.00 | 80 | 1013.4 |
| 20260502042544 | 7 | 163 | 0.0 | 0.0 | 0.00 | 0.00 | 0.00 | 80 | 1013.4 |
| 20260502042043 | 7 | 163 | 0.0 | 0.0 | 0.00 | 0.00 | 0.00 | 80 | 1013.4 |
| 20260502041542 | 7 | 163 | 0.0 | 1.6 | 0.00 | 0.00 | 0.00 | 80 | 1013.4 |
| 20260502041040 | 7 | 163 | 0.0 | 3.2 | 0.00 | 0.00 | 0.00 | 80 | 1013.2 |
| 20260502040539 | 7 | 163 | 0.0 | 3.2 | 0.00 | 0.00 | 0.00 | 78 | 1013.0 |
| 20260502040050 | 7 | 163 | 0.0 | 0.0 | 0.00 | 0.00 | 0.00 | 77 | 1013.0 |
| 20260502035538 | 7 | 163 | 0.0 | 0.0 | 0.00 | 0.00 | 0.00 | 77 | 1013.1 |
| 20260502035038 | 7 | 163 | 0.0 | 0.0 | 0.00 | 0.00 | 0.00 | 77 | 1013.1 |
| 20260502034537 | 7 | 163 | 0.0 | 0.0 | 0.00 | 0.00 | 0.00 | 77 | 1013.1 |
| 20260502034039 | 7 | 163 | 0.0 | 0.0 | 0.00 | 0.00 | 0.00 | 76 | 1013.1 |
| 20260502033537 | 7 | 163 | 0.0 | 0.0 | 0.00 | 0.00 | 0.00 | 76 | 1013.2 |
| 20260502033037 | 7 | 163 | 0.0 | 0.0 | 0.00 | 0.00 | 0.00 | 74 | 1013.2 |
| 20260502032536 | 7 | 163 | 0.0 | 0.0 | 0.00 | 0.00 | 0.00 | 75 | 1013.2 |
| 20260502032036 | 7 | 163 | 0.0 | 0.0 | 0.00 | 0.00 | 0.00 | 74 | 1013.3 |
| 20260502031540 | 7 | 163 | 0.0 | 0.0 | 0.00 | 0.00 | 0.00 | 74 | 1013.2 |
| 20260502031036 | 7 | 163 | 0.0 | 0.0 | 0.00 | 0.00 | 0.00 | 74 | 1013.1 |
| 20260502030536 | 7 | 163 | 0.0 | 0.0 | 0.00 | 0.00 | 0.00 | 73 | 1013.3 |
| 20260502030036 | 7 | 163 | 0.0 | 0.0 | 0.00 | 0.00 | 0.00 | 72 | 1013.4 |
| 20260502025535 | 7 | 163 | 0.0 | 0.0 | 0.00 | 0.00 | 0.00 | 71 | 1013.4 |
| 20260502025035 | 7 | 163 | 0.0 | 0.0 | 0.00 | 0.00 | 0.00 | 71 | 1013.3 |
| 20260502024538 | 7 | 163 | 0.0 | 0.0 | 0.00 | 0.00 | 0.00 | 69 | 1013.3 |
| 20260502024035 | 7 | 163 | 0.0 | 0.0 | 0.00 | 0.00 | 0.00 | 70 | 1013.4 |
| 20260502023536 | 7 | 163 | 0.0 | 0.0 | 0.00 | 0.00 | 0.00 | 69 | 1013.4 |
| 20260502023042 | 7 | 163 | 0.0 | 0.0 | 0.00 | 0.00 | 0.00 | 68 | 1013.3 |
| 20260502022536 | 7 | 163 | 0.0 | 0.0 | 0.00 | 0.00 | 0.00 | 67 | 1013.2 |
| 20260502022038 | 7 | 163 | 0.0 | 0.0 | 0.00 | 0.00 | 0.00 | 69 | 1013.4 |
| 20260502021534 | 7 | 163 | 0.0 | 0.0 | 0.00 | 0.00 | 0.00 | 66 | 1013.4 |
| 20260502021035 | 8 | 163 | 0.0 | 0.0 | 0.00 | 0.00 | 0.00 | 66 | 1013.3 |
| 20260502020533 | 8 | 163 | 0.0 | 0.0 | 0.00 | 0.00 | 0.00 | 65 | 1013.3 |
| 20260502020038 | 8 | 163 | 0.0 | 0.0 | 0.00 | 0.00 | 0.00 | 63 | 1013.4 |
| 20260502015533 | 8 | 163 | 0.0 | 0.0 | 0.00 | 0.00 | 0.00 | 62 | 1013.5 |
| 20260502015033 | 8 | 163 | 0.0 | 0.0 | 0.00 | 0.00 | 0.00 | 62 | 1013.5 |
| 20260502014532 | 8 | 163 | 0.0 | 0.0 | 0.00 | 0.00 | 0.00 | 62 | 1013.5 |
| 20260502014032 | 9 | 163 | 0.0 | 0.0 | 0.00 | 0.00 | 0.00 | 61 | 1013.5 |
| 20260502013532 | 9 | 163 | 0.0 | 0.0 | 0.00 | 0.00 | 0.00 | 62 | 1013.4 |
| 20260502013051 | 9 | 163 | 0.0 | 0.0 | 0.00 | 0.00 | 0.00 | 60 | 1013.4 |
| 20260502012532 | 10 | 163 | 0.0 | 0.0 | 0.00 | 0.00 | 0.00 | 60 | 1013.3 |
| 20260502012034 | 10 | 163 | 0.0 | 0.0 | 0.00 | 0.00 | 0.00 | 58 | 1013.2 |
| 20260502011532 | 10 | 163 | 0.0 | 1.6 | 0.00 | 0.00 | 0.00 | 57 | 1013.2 |
| 20260502011031 | 10 | 163 | 0.0 | 4.8 | 0.00 | 0.00 | 0.00 | 56 | 1013.1 |
| 20260502010531 | 10 | 163 | 0.0 | 4.8 | 0.00 | 0.00 | 0.00 | 56 | 1013.1 |
| 20260502010034 | 10 | 52 | 0.0 | 1.6 | 0.00 | 0.00 | 0.00 | 57 | 1013.0 |
| 20260502005531 | 10 | 52 | 0.0 | 1.6 | 0.00 | 0.00 | 0.00 | 57 | 1012.9 |
| 20260502005031 | 10 | 52 | 0.0 | 1.6 | 0.00 | 0.00 | 0.00 | 55 | 1012.9 |
| 20260502004531 | 10 | 52 | 0.0 | 6.4 | 0.00 | 0.00 | 0.00 | 55 | 1012.9 |
| 20260502004030 | 10 | 52 | 1.6 | 6.4 | 0.00 | 0.00 | 0.00 | 54 | 1012.8 |
| 20260502003531 | 11 | 194 | 0.0 | 1.6 | 0.00 | 0.00 | 0.00 | 55 | 1012.8 |
| 20260502003030 | 11 | 194 | 0.0 | 1.6 | 0.00 | 0.00 | 0.00 | 56 | 1012.8 |
| 20260502002530 | 11 | 194 | 0.0 | 1.6 | 0.00 | 0.00 | 0.00 | 57 | 1012.6 |
| 20260502002030 | 11 | 194 | 0.0 | 3.2 | 0.00 | 0.00 | 0.00 | 57 | 1012.6 |
| 20260502001530 | 11 | 194 | 0.0 | 4.8 | 0.00 | 0.00 | 0.00 | 57 | 1012.5 |
| 20260502001031 | 11 | 174 | 1.6 | 4.8 | 0.00 | 0.00 | 0.00 | 54 | 1012.5 |
| 20260502000530 | 11 | 172 | 0.0 | 1.6 | 0.00 | 0.00 | 0.00 | 53 | 1012.4 |
| 20260502000030 | 12 | 172 | 0.0 | 3.2 | 0.00 | 0.00 | 0.00 | 53 | 1012.3 |
| 20260501235533 | 12 | 172 | 0.0 | 3.2 | 0.00 | 0.00 | 0.00 | 51 | 1012.2 |
| 20260501235028 | 12 | 171 | 0.0 | 0.0 | 0.00 | 0.00 | 0.00 | 52 | 1012.2 |
| 20260501234529 | 12 | 172 | 0.0 | 0.0 | 0.00 | 0.00 | 0.00 | 53 | 1012.1 |
| 20260501234030 | 12 | 171 | 0.0 | 0.0 | 0.00 | 0.00 | 0.00 | 50 | 1012.1 |
| 20260501233528 | 12 | 171 | 0.0 | 0.0 | 0.00 | 0.00 | 0.00 | 49 | 1012.0 |
| 20260501233030 | 12 | 172 | 0.0 | 1.6 | 0.00 | 0.00 | 0.00 | 49 | 1012.0 |
| 20260501232528 | 13 | 171 | 0.0 | 4.8 | 0.00 | 0.00 | 0.00 | 46 | 1011.9 |
| 20260501232027 | 13 | 209 | 0.0 | 4.8 | 0.00 | 0.00 | 0.00 | 46 | 1011.8 |
| 20260501231527 | 13 | 175 | 0.0 | 4.8 | 0.00 | 0.00 | 0.00 | 45 | 1011.8 |
| 20260501231027 | 13 | 175 | 0.0 | 9.7 | 0.00 | 0.00 | 0.00 | 44 | 1011.8 |
| 20260501230527 | 13 | 165 | 1.6 | 9.7 | 0.00 | 0.00 | 0.00 | 43 | 1011.7 |
| 20260501230035 | 13 | 180 | 0.0 | 4.8 | 0.00 | 0.00 | 0.00 | 44 | 1011.7 |
| 20260501225527 | 13 | 180 | 0.0 | 4.8 | 0.00 | 0.00 | 0.00 | 43 | 1011.6 |
| 20260501225027 | 13 | 166 | 0.0 | 6.4 | 0.00 | 0.00 | 0.00 | 43 | 1011.6 |
| 20260501224527 | 14 | 165 | 0.0 | 3.2 | 0.00 | 0.00 | 0.00 | 42 | 1011.6 |
| 20260501224026 | 14 | 165 | 0.0 | 9.7 | 0.00 | 0.00 | 0.00 | 42 | 1011.6 |
| 20260501223526 | 14 | 165 | 3.2 | 9.7 | 0.00 | 0.00 | 0.00 | 40 | 1011.5 |
| 20260501223027 | 14 | 192 | 0.0 | 8.0 | 0.00 | 0.00 | 0.00 | 42 | 1011.5 |
| 20260501222527 | 14 | 118 | 0.0 | 11.3 | 0.00 | 0.00 | 0.00 | 40 | 1011.5 |
| 20260501222029 | 14 | 163 | 1.6 | 11.3 | 0.00 | 0.00 | 0.00 | 41 | 1011.5 |
| 20260501221525 | 14 | 190 | 4.8 | 11.3 | 0.00 | 0.00 | 0.00 | 42 | 1011.5 |